TimeEST,TemperatureF,Dew PointF,Humidity,Sea Level PressureIn,VisibilityMPH,Wind Direction,Wind SpeedMPH,Gust SpeedMPH,PrecipitationIn,Events,Conditions,WindDirDegrees,DateUTC
12:53 AM,25.0,19.0,78,30.25,10.0,SSE,6.9,-,N/A,,Clear,150,2013-02-10 05:53:00
1:53 AM,25.0,19.0,78,30.22,10.0,SE,10.4,-,N/A,,Clear,140,2013-02-10 06:53:00
2:53 AM,26.1,19.0,75,30.21,10.0,SE,9.2,-,N/A,,Clear,140,2013-02-10 07:53:00
3:53 AM,28.0,19.9,72,30.20,10.0,SSE,9.2,-,N/A,,Clear,150,2013-02-10 08:53:00
4:53 AM,28.9,19.9,69,30.19,10.0,SE,11.5,-,N/A,,Clear,140,2013-02-10 09:53:00
5:53 AM,28.9,21.0,72,30.21,10.0,South,9.2,-,N/A,,Clear,170,2013-02-10 10:53:00
6:53 AM,30.0,21.0,69,30.18,10.0,SE,11.5,-,N/A,,Mostly Cloudy,140,2013-02-10 11:53:00
7:53 AM,30.9,21.0,67,30.14,10.0,SE,11.5,-,N/A,,Overcast,140,2013-02-10 12:53:00
8:53 AM,32.0,21.9,66,30.14,10.0,SE,11.5,-,N/A,,Overcast,140,2013-02-10 13:53:00
9:53 AM,34.0,24.1,67,30.12,10.0,SE,16.1,-,N/A,,Partly Cloudy,140,2013-02-10 14:53:00
10:53 AM,37.0,25.0,62,30.11,10.0,SSE,12.7,19.6,N/A,,Partly Cloudy,160,2013-02-10 15:53:00
11:53 AM,39.9,28.0,63,30.09,10.0,SSE,11.5,-,N/A,,Mostly Cloudy,150,2013-02-10 16:53:00
12:53 PM,39.9,27.0,60,30.03,10.0,SSE,12.7,-,N/A,,Overcast,150,2013-02-10 17:53:00
1:53 PM,41.0,30.0,65,29.99,10.0,SE,11.5,-,N/A,,Overcast,140,2013-02-10 18:53:00
2:53 PM,41.0,28.9,62,29.94,10.0,SE,11.5,-,N/A,,Overcast,130,2013-02-10 19:53:00
3:53 PM,41.0,28.9,62,29.94,10.0,SE,12.7,-,N/A,,Overcast,140,2013-02-10 20:53:00
4:53 PM,41.0,30.0,65,29.87,10.0,SE,10.4,-,0.00,Rain,Light Rain,130,2013-02-10 21:53:00
5:53 PM,42.1,28.9,60,29.86,10.0,SE,12.7,-,0.00,,Overcast,140,2013-02-10 22:53:00
6:53 PM,41.0,30.9,67,29.84,10.0,SE,12.7,-,0.00,Rain,Light Rain,140,2013-02-10 23:53:00
7:53 PM,42.1,30.0,62,29.80,10.0,SSE,13.8,-,0.00,,Overcast,150,2013-02-11 00:53:00
8:40 PM,44.6,32.0,61,29.77,10.0,SSE,24.2,32.2,N/A,,Overcast,160,2013-02-11 01:40:00
8:53 PM,45.0,32.0,60,29.78,10.0,SSE,26.5,34.5,N/A,,Overcast,160,2013-02-11 01:53:00
9:53 PM,44.1,36.0,73,29.76,10.0,South,19.6,-,N/A,,Overcast,170,2013-02-11 02:53:00
10:53 PM,44.1,37.9,79,29.75,10.0,South,20.7,25.3,N/A,,Overcast,180,2013-02-11 03:53:00
11:53 PM,45.0,39.9,82,29.74,10.0,South,21.9,29.9,0.00,,Overcast,180,2013-02-11 04:53:00